User: anonymous
Location: Caltech
(34.1382°N, 118.1253°W)
Time: 17:39:36
(UTC-07:00)
Language:

Cosmos 2219 Rocket - Orbit

View from above orbital plane
View from above orbital plane
View from above satellite
View from above satellite

Ground track
Ground track

The orbit data is extracted from the following two-line orbital elements,

1 22220U 92076B   14109.07762251 -.00000168  00000-0 -60581-4 0  2889
2 22220 071.0011 330.4903 0014621 239.1615 275.0351 14.16306442107218
Epoch (UTC): 19 April 2014 01:51:46
Eccentricity: 0.0014621
inclination: 71.0011°
perigee height: 827 km
apogee height: 848 km
right ascension of ascending node: 330.4903°
argument of perigee: 239.1615°
revolutions per day: 14.16306442
mean anomaly at epoch: 275.0351°
orbit number at epoch: 10721

The dashed part of the orbit path shows where the satellite is in the earth's shadow,  

DLR